EHI
0 0 0 0 0 0 0 0 0 0 0 0 0 0 0 0 0 0 0 0 0 0 0 0 0 0 0 0 0 0 0 0 0 0 0 0 0 0 0 0 0 0 0
0 0 0 0 0 0 0 0 0 0 0 0 0 0 0 0 0 0 0 0 0 0 0 0 0 0 0 0 0 0 0 0 0 0 0 0 0 0 0 0 0 0 0
0 0 0 0 0 0 0 0 0 0 0 0 0 0 0 0 0 0 0 0 0 0 0 0 0 0 0 0 0 0 0 0 0 0 0 0 0 0 0 0 0 0 0
0 0 0 0 0 0 0 0 0 0 0 0 0 0 0 0 0 0 0 0 0 0 0 0 0 0 0 0 0 0 0 0 0 0 0 0 0 0 0 0 0 0 0
0 0 0 0 0 0 0 0 0 0 0 0 0 0 0 0 0 0 0 0 0 0 0 0 0 0 0 0 0 0 0 0 0 0 0 0 0 0 0 0 0 0 0
0 0 0 0 0 0 0 0 0 0 0 0 0 0 0 0 0 0 0 0 0 0 0 0 0 0 0 0 0 0 0 0 0 0 0 0 0 0 0 0 0 0 0
0 0 0 0 0 0 0 0 0 0 0 0 0 0 0 0 0 0 0 0 0 0 0 0 0 0 0 0 0 0 0 0 0 0 0 0 0 0 0 0 0 0 0
0 0 0 0 0 0 0 0 0 0 0 0 0 0 0 0 0 0 0 0 0 0 0 0 0 0 0 0 0 0 0 0 0 0 0 0 0 0 0 0 0 0 0
0 0 0 0 0 0 0 0 0 0 0 0 0 0 0 0 0 0 0 0 0 0 0 0 0 0 0 0 0 0 0 0 0 0 0 0 0 0 0 0 0 0 0
0 0 0 0 0 0 0 0 0 0 0 0 0 0 0 0 0 0 0 0 0 0 0 0 0 0 0 0 0 0 0 0 0 0 0 0 0 0 0 0 0 0 0
0 0 0 0 0 0 0 0 0 0 0 0 0 0 0 0 0 0 0 0 0 0 0 0 0 0 0 0 0 0 0 0 0 0 0 0 0 0 0 0 0 0 0
0 0 0 0 0 0 0 0 0 0 0 0 0 0 0 0 0 0 0 0 0 0 0 0 0 0 0 0 0 0 0 0 0 0 0 0 0 0 0 0 0 0 0
0 0 0 0 0 0 0 0 0 0 0 0 0 0 0 0 0 0 0 0 0 0 0 0 0 0 0 0 0 0 0 0 0 0 0 0 0 0 0 0 0 0 0
0 0 0 0 0 0 0 0 0 0 0 0 0 0 0 0 0 0 0 0 0 0 0 0 0 0 0 0 0 0 0 0 0 0 0 0 0 0 0 0 0 0 0
0 0 0 0 0 0 0 0 0 0 0 0 0 0 0 0 0 0 0 0 0 0 0 0 0 0 0 0 0 0 0 0 0 0 0 0 0 0 0 0 0 0 0
0 0 0 0 0 0 0 0 0 0 0 0 0 0 0 0 0 0 0 0 0 0 0 0 0 0 0 0 0 0 0 0 0 0 0 0 0 0 0 0 0 0 0
0 0 0 0 0 0 0 0 0 0 0 0 0 0 0 0 0 0 0 0 0 0 0 0 0 0 0 0 0 0 0 0 0 0 0 0 0 0 0 0 0 0 0
0 0 0 0 0 0 0 0 0 0 0 0 0 0 0 0 0 0 0 0 0 0 0 0 0 0 0 0 0 0 0 0 0 0 0 0 0 0 0 0 0 0 0
0 0 0 0 0 0 0 0 0 0 0 0 0 0 0 0 0 0 0 0 0 0 0 0 0 0 0 0 0 0 0 0 0 0 0 0 0 0 0 0 0 0 0
0 0 0 0 0 0 0 0 0 0 0 0 0 0 0 0 0 0 0 0 0 0 0 0 0 0 0 0 0 0 0 0 0 0 0 0 0 0 0 0 0 0 0
0 0 0 0 0 0 0 0 0 0 0 0 0 0 0 0 0 0 0 0 0 0 0 0 0 0 0 0 0 0 0 0 0 0 0 0 0 0 0 0 0 0 0
0 0 0 0 0 0 0 0 0 0 0 0 0 0 0 0 0 0 0 0 0 0 0 0 0 0 0 0 0 0 0 0 0 0 0 0 0 0 0 0 0 0 0
0 0 0 0 0 0 0 0 0 0 0 0 0 0 0 0 0 0 0 0 0 0 0 0 0 0 0 0 0 0 0 0 0 0 0 0 0 0 0 0 0 0 0
0 0 0 0 0 0 0 0 0 0 0 0 0 0 0 0 0 0 0 0 0 0 0 0 0 0 0 0 0 0 0 0 0 0 0 0 0 0 0 0 0 0 0
0 0 0 0 0 0 0 0 0 0 0 0 0 0 0 0 0 0 0 0 0 0 0 0 0 0 0 0 0 0 0 0 0 0 0 0 0 0 0 0 0 0 0
0 0 0 0 0 0 0 0 0 0 0 0 0 0 0 0 0 0 0 0 0 0 0 0 0 0 0 0 0 0 0 0 0 0 0 0 0 0 0 0 0 0 0
Wind_Speed
8 7 7 6 5 5 5 5 5 5 5 4 3 3 3 3 3 2 2 2 2 2 2 3 4 4 3 4 4 4 5 5 8 5 3 3 4 5 4 5 5 6 7
7 7 7 7 6 6 6 6 6 6 5 5 5 4 4 4 4 3 3 2 2 3 3 3 3 3 4 3 4 5 5 6 7 7 3 3 4 6 5 5 5 5 5
6 7 7 7 7 7 7 7 7 6 6 7 6 6 6 6 6 5 5 4 3 3 3 3 3 3 4 3 3 4 4 5 5 5 4 3 3 3 4 4 4 4 5
6 6 7 7 6 6 6 6 7 6 6 7 7 6 6 6 6 6 5 5 4 4 3 3 3 3 4 4 3 4 4 5 5 4 3 2 3 2 3 3 4 4 5
6 6 6 6 6 6 6 6 6 7 7 7 6 6 6 5 6 6 5 5 4 4 4 4 4 4 5 5 4 4 4 4 4 4 4 3 3 2 3 3 4 3 4
6 6 6 7 7 7 7 7 7 7 7 7 7 7 7 6 10 11 8 5 5 5 5 5 5 5 6 8 8 7 6 5 5 4 5 5 5 4 3 3 4 4 5
6 6 7 7 7 7 7 7 7 7 7 7 7 7 7 8 12 12 11 6 5 5 5 5 5 5 7 5 7 8 8 9 8 6 5 5 5 4 5 5 6 6 6
5 6 6 6 6 6 7 7 7 6 6 6 7 7 7 9 14 13 13 7 5 5 5 5 5 5 6 7 5 5 6 6 7 5 5 6 5 5 6 7 8 7 4
5 5 5 6 6 6 7 6 5 5 5 5 5 6 6 8 13 14 12 5 5 5 6 6 6 5 10 12 7 6 7 6 8 10 11 10 11 10 7 4 4 4 5
4 4 4 5 5 5 5 5 4 4 4 5 5 5 5 6 11 13 13 5 5 5 5 5 9 9 12 13 7 6 7 7 7 8 8 8 7 7 8 5 4 5 4
3 3 4 4 4 4 4 4 4 4 4 4 4 4 4 6 9 13 13 6 5 6 5 5 6 13 15 15 12 7 9 10 7 6 6 5 5 4 4 4 4 5 5
1 2 3 3 3 3 4 4 4 4 4 4 4 5 4 5 8 11 14 13 11 6 5 5 7 14 15 14 10 11 14 11 5 4 5 5 4 4 4 5 5 6 6
1 2 2 3 3 3 3 4 4 4 4 4 4 4 4 4 6 12 14 15 15 8 6 12 14 16 14 10 11 14 11 5 4 4 5 5 4 4 4 4 4 4 4
1 1 2 2 3 3 3 2 3 3 3 4 4 4 4 4 5 5 6 7 10 9 7 9 13 13 10 10 9 7 5 5 5 5 5 5 4 4 4 3 4 3 4
0 1 1 1 2 2 2 2 2 1 2 4 3 3 4 5 8 14 10 7 7 8 8 5 4 5 5 5 5 4 4 5 5 5 5 5 5 5 4 3 3 4 4
0 1 1 1 1 2 2 3 3 4 6 7 6 6 5 9 13 14 15 16 16 15 8 5 5 5 6 6 7 6 5 5 5 5 5 5 5 5 5 4 3 4 5
1 1 0 1 1 2 2 3 3 5 6 7 8 9 9 12 13 14 15 15 14 12 5 5 5 6 6 6 6 6 6 6 6 5 5 5 5 5 5 5 4 4 4
2 1 1 1 1 1 2 2 2 3 4 4 6 9 11 12 13 14 14 11 7 6 4 5 6 6 6 6 7 7 6 6 6 6 5 5 5 5 5 5 4 4 4
2 1 0 0 1 1 1 2 2 3 3 4 4 5 9 11 12 12 11 5 5 6 5 5 6 6 6 6 7 7 7 6 6 6 5 5 5 4 5 5 5 6 5
2 2 1 1 1 1 1 2 3 3 4 4 4 4 5 6 5 6 5 5 5 5 6 6 6 6 7 7 7 6 6 6 6 6 6 5 5 4 5 5 5 5 4
2 1 1 1 1 1 2 2 2 3 4 4 4 6 10 5 5 6 5 5 5 6 6 6 6 7 6 6 6 7 7 7 6 6 6 5 5 5 4 4 5 4 4
2 1 1 1 1 1 2 2 2 3 4 5 4 5 10 5 5 5 5 6 5 5 6 6 6 6 6 6 6 6 7 7 7 6 6 6 5 5 5 4 4 4 3
2 2 1 1 1 3 2 2 2 3 3 4 5 5 5 5 5 5 6 6 6 6 6 6 6 6 6 6 6 6 7 7 7 8 7 7 6 5 5 5 5 5 4
2 2 2 2 1 1 2 2 2 3 4 4 4 5 5 5 5 6 6 6 6 6 6 6 6 8 10 8 6 6 7 8 8 7 8 7 7 6 5 5 5 4 3
2 2 2 2 1 1 2 2 3 3 4 4 4 5 5 5 6 6 6 6 7 7 8 7 6 7 9 11 10 9 13 16 14 9 7 6 6 6 5 5 4 4 3
2 2 2 2 2 2 2 3 3 3 3 4 4 4 5 5 5 5 6 6 6 7 7 7 8 10 11 10 11 14 17 17 16 15 9 5 5 5 5 4 4 3 3
Wind_Direction
6 2 2 3 7 10 15 10 5 4 3 6 4 15 12 359 348 349 342 333 295 291 293 267 260 255 248 240 230 229 231 232 247 246 226 221 210 219 222 221 223 219 225
3 8 11 11 15 18 17 9 7 11 12 15 17 25 21 11 10 9 1 348 325 312 307 299 294 288 265 260 247 240 237 235 241 250 242 232 229 219 215 223 230 229 229
7 13 16 19 21 19 15 11 13 18 21 22 26 29 26 22 19 11 3 356 346 335 325 308 305 304 282 268 263 259 251 248 243 249 248 239 241 225 220 230 231 235 239
11 15 17 15 14 13 12 15 17 21 24 23 25 26 26 23 21 10 2 359 355 350 344 338 334 319 304 291 272 269 267 255 249 252 253 250 248 235 220 229 246 234 237
14 17 15 10 11 12 14 16 19 24 26 23 22 20 17 19 17 6 356 354 351 348 346 344 345 340 323 319 311 293 282 267 258 251 253 255 244 229 230 227 249 260 254
19 18 17 16 15 14 13 16 19 21 21 23 23 21 21 17 8 7 4 1 358 357 352 348 345 345 347 342 335 323 306 284 269 253 247 252 247 244 237 242 245 255 257
20 19 20 18 17 13 13 18 17 16 16 17 18 20 20 14 10 8 8 5 359 355 350 344 344 349 352 344 337 335 325 312 298 279 262 256 252 244 238 238 237 243 253
23 20 17 16 16 15 20 20 16 15 15 15 15 15 15 12 12 10 6 8 0 358 354 349 347 346 345 341 334 327 315 312 306 293 270 261 258 249 238 240 241 247 261
21 15 13 12 12 13 16 12 10 12 14 10 8 9 12 8 11 11 9 359 1 357 353 350 344 341 340 341 335 319 312 309 313 305 297 290 287 283 275 265 250 247 264
9 4 6 7 10 11 6 3 1 5 3 357 359 2 7 7 9 11 7 359 356 348 341 341 346 342 339 338 331 318 311 307 308 307 298 293 283 272 270 247 234 242 259
358 3 5 2 4 6 1 357 352 350 348 348 352 355 3 8 6 7 4 360 349 341 338 335 333 336 332 329 325 314 308 308 301 296 291 283 276 266 251 247 242 238 247
358 360 357 355 356 1 352 346 345 345 347 349 355 357 1 1 2 359 358 354 348 339 330 323 322 328 327 327 325 322 321 319 304 297 293 289 284 281 271 260 256 255 250
349 349 346 346 347 350 350 348 345 350 354 352 355 353 350 352 350 354 351 347 345 339 325 326 327 330 330 329 331 331 330 320 307 301 296 292 283 279 280 280 280 278 278
334 334 339 341 343 349 352 358 356 353 352 349 349 345 339 339 338 339 336 336 337 332 325 323 327 328 329 327 330 331 328 320 316 303 299 295 292 286 285 284 286 285 287
266 312 330 338 341 338 342 346 348 336 336 334 329 326 329 328 331 336 338 333 329 323 325 321 321 325 330 328 324 322 321 322 321 311 308 309 308 301 294 283 279 278 276
252 311 333 337 336 338 337 334 331 322 330 332 327 326 323 325 330 336 337 337 336 336 339 333 330 330 329 328 327 324 322 321 319 317 315 313 312 308 302 295 282 277 278
196 219 288 321 335 337 334 331 326 328 332 333 331 332 331 332 335 336 337 337 339 346 347 333 329 329 327 324 321 319 318 318 316 314 311 310 310 309 306 302 296 290 286
193 212 237 263 301 316 315 317 317 319 321 321 325 328 332 336 336 336 339 342 340 345 336 330 327 326 325 324 321 319 317 317 315 314 312 310 310 309 309 306 302 295 293
186 183 191 285 296 295 304 308 308 311 310 314 319 325 335 336 335 336 343 344 331 331 332 329 327 326 325 322 320 318 316 314 315 315 313 312 311 310 309 307 306 303 302
188 188 174 268 285 295 306 308 309 311 314 316 317 320 328 334 333 334 337 331 329 328 328 326 324 323 322 319 317 315 316 316 317 315 313 312 310 306 305 308 308 305 302
173 188 212 266 270 283 294 297 303 309 311 311 311 316 328 330 325 325 328 330 329 327 326 323 321 319 318 316 317 318 318 316 314 312 312 313 313 307 303 301 302 300 299
169 179 196 230 257 270 284 290 297 302 306 308 311 319 327 330 321 321 323 324 325 322 319 316 314 313 315 317 318 317 314 312 312 311 309 308 307 302 300 300 299 296 293
174 187 207 234 248 277 290 290 293 298 303 306 312 318 321 320 319 320 321 322 322 320 319 316 313 312 312 311 309 307 306 305 305 306 306 305 303 298 296 293 290 289 287
180 192 209 226 233 249 270 281 289 298 303 305 309 311 313 314 316 318 319 317 316 314 313 313 310 310 312 312 307 304 302 302 302 299 295 292 295 293 290 288 286 283 281
182 194 205 215 228 247 269 279 285 292 299 304 307 310 313 314 314 314 314 313 313 311 312 312 309 309 311 311 309 306 306 309 309 306 296 289 286 286 286 285 281 282 281
179 189 204 216 226 239 255 268 277 287 293 299 302 304 306 306 306 308 310 310 313 312 311 310 309 310 310 309 308 310 313 315 316 315 310 295 288 287 288 285 279 276 271